Location: Cosy Dell
(34.2789°N, 117.4537°W)
Time: 21:09:05
(UTC+00:00)

Cosmos 2219 Rocket - Pass Details

Date: 14 July 2020
Orbit: 827 x 848 km, 71.0° (Epoch: 13 August)

Event Time Altitude Azimuth Distance (km) Brightness Sun altitude
Rises 04:27:56 0° 230° (SW) 3,354 5.4 -15.4°
Reaches altitude 10° 04:30:43 10° 243° (WSW) 2,426 4.9 -15.9°
Maximum altitude 04:35:22 27° 299° (WNW) 1,554 4.4 -16.6°
Drops below altitude 10° 04:40:03 10° 356° (N) 2,445 5.3 -17.3°
Sets 04:42:53 0° 9° (N) 3,386 5.8 -17.7°
